Location: ?ejeti?ky
(50.4060°N, 14.9016°E)
Time: 08:14:41
(UTC+00:00)

N. Korean satellite - Pass Details

Date: 12 December 2021
Orbit: 446 x 491 km, 97.3° (Epoch: 18 January)

Event Time Altitude Azimuth Distance (km) Brightness Sun altitude
Rises 04:02:48 0° 18° (NNE) 2,463 10.3 -25.6°
Reaches altitude 10° 04:04:54 10° 24° (NNE) 1,586 9.4 -25.3°
Enters shadow 04:05:23 13° 27° (NNE) 1,390 9.1 -25.2°
Exits shadow 04:10:29 17° 168° (SSE) 1,200 8.7 -24.4°
Drops below altitude 10° 04:11:26 10° 174° (S) 1,579 9.3 -24.2°
Sets 04:13:31 0° 181° (S) 2,450 10.2 -23.9°
